CW2433 Weather Reports


Display with metric or nautical units.
time (UTC)temp
F
wind
direction
speed
MPH
gust
MPH
rain 1hr
in
rain 24hr
in
rain mn
in
humidity
%
barometer
mb
20190218080510 16 290 1.0 3.0 0.00 0.00 0.00 81 1028.6
20190218080010 16 278 1.0 3.0 0.00 0.00 0.00 81 1028.4
20190218075510 16 290 0.0 3.0 0.00 0.00 0.00 81 1028.4
20190218075010 16 291 1.0 3.0 0.00 0.00 0.00 81 1028.4
20190218074510 16 285 2.0 3.0 0.00 0.00 0.00 81 1028.4
20190218074010 16 286 1.0 3.0 0.00 0.00 0.00 81 1028.3
20190218073510 16 268 0.0 3.0 0.00 0.00 0.00 80 1028.3
20190218073010 16 267 1.0 3.0 0.00 0.00 0.00 80 1028.1
20190218072510 16 278 0.0 3.0 0.00 0.00 0.00 80 1028.0
20190218072010 16 269 0.0 3.0 0.00 0.00 0.00 80 1027.9
20190218071510 16 267 0.0 3.0 0.00 0.00 0.00 80 1027.8
20190218071010 16 273 0.0 3.0 0.00 0.00 0.00 80 1027.8
20190218070510 16 267 0.0 6.0 0.00 0.00 0.00 80 1027.8
20190218070009 16 259 0.0 6.0 0.00 0.00 0.00 80 1027.9
20190218065509 16 261 1.0 6.0 0.00 0.00 0.00 80 1027.8
20190218065009 16 277 0.0 3.0 0.00 0.00 0.00 80 1027.6
20190218064509 16 279 0.0 3.0 0.00 0.00 0.00 80 1027.5
20190218064009 17 295 0.0 3.0 0.00 0.00 0.00 80 1027.3
20190218063509 17 323 1.0 3.0 0.00 0.00 0.00 80 1027.3
20190218063009 17 333 1.0 3.0 0.00 0.00 0.00 80 1027.2
20190218062509 17 328 1.0 3.0 0.00 0.00 0.00 80 1027.1
20190218062009 17 309 0.0 3.0 0.00 0.00 0.00 80 1027.0
20190218061509 17 309 1.0 6.0 0.00 0.00 0.00 80 1026.8
20190218061009 17 293 3.0 6.0 0.00 0.00 0.00 80 1026.8
20190218060510 17 319 3.0 6.0 0.00 0.00 0.00 80 1026.7
20190218060010 17 310 1.0 7.0 0.00 0.00 0.00 80 1026.7
20190218055514 17 320 2.0 7.0 0.00 0.00 0.00 80 1026.7
20190218055010 17 275 1.0 6.0 0.00 0.00 0.00 80 1026.6
20190218054510 17 287 2.0 6.0 0.00 0.00 0.00 80 1026.5
20190218054010 17 273 2.0 5.0 0.00 0.00 0.00 80 1026.3
20190218053509 17 288 1.0 3.0 0.00 0.00 0.00 80 1026.2
20190218053010 17 300 1.0 3.0 0.00 0.00 0.00 80 1026.2
20190218052510 17 293 1.0 3.0 0.00 0.00 0.00 80 1026.2
20190218052009 18 302 1.0 5.0 0.00 0.00 0.00 81 1026.1
20190218051510 18 279 1.0 5.0 0.00 0.00 0.00 81 1026.1
20190218051009 18 289 1.0 5.0 0.00 0.00 0.00 81 1026.0
20190218050509 18 303 1.0 7.0 0.00 0.00 0.00 81 1025.9
20190218050009 18 266 1.0 7.0 0.00 0.00 0.00 81 1025.9
20190218045509 18 335 1.0 6.0 0.00 0.00 0.00 81 1025.9
20190218045010 18 319 3.0 6.0 0.00 0.00 0.00 81 1025.8
20190218044509 18 275 1.0 3.0 0.00 0.00 0.00 81 1025.8
20190218044009 18 292 1.0 3.0 0.00 0.00 0.00 81 1025.8
20190218043509 18 279 1.0 3.0 0.00 0.00 0.00 81 1025.7
20190218043009 18 296 1.0 3.0 0.00 0.00 0.00 81 1025.6
20190218042509 18 305 2.0 3.0 0.00 0.00 0.00 81 1025.5
20190218042009 18 271 1.0 6.0 0.00 0.00 0.00 81 1025.5
20190218041509 18 335 1.0 6.0 0.00 0.00 0.00 81 1025.4
20190218041010 19 333 1.0 6.0 0.00 0.00 0.00 82 1025.2
20190218040509 19 316 1.0 5.0 0.00 0.00 0.00 82 1025.1
20190218040010 19 328 2.0 13.0 0.00 0.00 0.00 82 1025.2
20190218035508 19 350 3.0 13.0 0.00 0.00 0.00 82 1025.1
20190218035009 19 307 3.0 13.0 0.00 0.00 0.00 81 1025.0
20190218034510 19 339 1.0 7.0 0.00 0.00 0.00 81 1024.9
20190218034009 19 313 2.0 10.0 0.00 0.00 0.00 81 1024.7
20190218033509 19 332 3.0 10.0 0.00 0.00 0.00 81 1024.7
20190218033009 19 345 6.0 10.0 0.00 0.00 0.00 81 1024.7
20190218032509 19 337 4.0 9.0 0.00 0.00 0.00 81 1024.5
20190218032009 19 5 4.0 10.0 0.00 0.00 0.00 81 1024.5
20190218031510 19 290 2.0 12.0 0.00 0.00 0.00 81 1024.2
20190218031009 19 302 7.0 12.0 0.00 0.00 0.00 81 1024.1
20190218030510 19 335 3.0 12.0 0.00 0.00 0.00 81 1024.0
20190218030010 19 325 3.0 10.0 0.00 0.00 0.00 81 1024.1
20190218025510 20 349 3.0 10.0 0.00 0.00 0.00 81 1024.1
20190218025009 20 335 3.0 10.0 0.00 0.00 0.00 81 1024.0
20190218024510 20 352 5.0 10.0 0.00 0.00 0.00 80 1024.0
20190218024009 20 5 3.0 10.0 0.00 0.00 0.00 80 1023.9
20190218023510 20 341 2.0 10.0 0.00 0.00 0.00 80 1023.7
20190218023010 20 340 5.0 12.0 0.00 0.00 0.00 80 1023.6
20190218022510 20 5 5.0 12.0 0.00 0.00 0.00 80 1023.6
20190218022010 20 337 6.0 10.0 0.00 0.00 0.00 80 1023.5
20190218021510 20 312 3.0 9.0 0.00 0.00 0.00 80 1023.5
20190218021010 20 341 3.0 10.0 0.00 0.00 0.00 80 1023.5
20190218020510 20 345 4.0 10.0 0.00 0.00 0.00 80 1023.4
20190218020010 20 327 2.0 10.0 0.00 0.00 0.00 79 1023.2
20190218015510 20 5 2.0 12.0 0.00 0.00 0.00 79 1023.0
20190218015010 20 25 3.0 12.0 0.00 0.00 0.00 79 1023.0
20190218014510 21 0 4.0 12.0 0.00 0.00 0.00 80 1022.9
20190218014010 21 331 3.0 13.0 0.00 0.00 0.00 80 1022.8
20190218013510 21 347 5.0 14.0 0.00 0.00 0.00 80 1022.7
20190218013010 21 311 9.0 14.0 0.00 0.00 0.00 80 1022.6
20190218012510 21 11 5.0 14.0 0.00 0.00 0.00 80 1022.6
20190218012010 21 313 7.0 14.0 0.00 0.00 0.00 80 1022.5
20190218011510 21 327 6.0 14.0 0.00 0.00 0.00 80 1022.5
20190218011010 21 313 7.0 14.0 0.00 0.00 0.00 80 1022.4
20190218010510 21 0 4.0 12.0 0.00 0.00 0.00 80 1022.1
20190218010010 21 5 5.0 16.0 0.00 0.00 0.00 80 1022.0
20190218005510 21 345 9.0 16.0 0.00 0.00 0.00 81 1021.9
20190218005010 21 328 5.0 14.0 0.00 0.00 0.00 81 1021.9
20190218004510 21 323 7.0 13.0 0.00 0.00 0.00 81 1021.8
20190218004010 21 329 3.0 7.0 0.00 0.00 0.00 81 1021.6
20190218003510 21 330 2.0 7.0 0.00 0.00 0.00 81 1021.5
20190218003010 21 341 2.0 7.0 0.00 0.00 0.00 81 1021.4
20190218002510 21 327 2.0 7.0 0.00 0.00 0.00 80 1021.4
20190218002010 21 351 3.0 9.0 0.00 0.00 0.00 80 1021.2
20190218001510 21 350 2.0 9.0 0.00 0.00 0.00 80 1021.0
20190218001010 22 333 2.0 9.0 0.00 0.00 0.00 79 1020.9
20190218000510 22 333 4.0 9.0 0.00 0.00 0.00 79 1020.8
20190218000010 22 355 2.0 6.0 0.00 0.00 0.00 79 1020.7
20190217235510 22 348 3.0 9.0 0.00 0.00 0.00 79 1020.4
20190217235010 22 334 3.0 9.0 0.00 0.00 0.00 79 1020.3
20190217234511 22 288 3.0 8.0 0.00 0.00 0.00 78 1020.3
20190217234010 22 342 2.0 6.0 0.00 0.00 0.00 78 1020.2
20190217233510 22 320 3.0 6.0 0.00 0.00 0.00 77 1020.0
20190217233010 22 279 2.0 7.0 0.00 0.00 0.00 77 1019.9
20190217232510 22 292 4.0 10.0 0.00 0.00 0.00 77 1019.8
20190217232010 22 305 3.0 10.0 0.00 0.00 0.00 76 1019.8
20190217231510 22 294 3.0 6.0 0.00 0.00 0.00 76 1019.8
20190217231010 22 282 3.0 9.0 0.00 0.00 0.00 75 1019.7
20190217230510 22 299 2.0 9.0 0.00 0.00 0.00 75 1019.6
20190217230011 23 286 2.0 9.0 0.00 0.00 0.00 75 1019.4
20190217225510 23 265 3.0 9.0 0.00 0.00 0.00 75 1019.3
20190217225010 23 279 5.0 9.0 0.00 0.00 0.00 74 1019.2
20190217224511 23 275 3.0 7.0 0.00 0.00 0.00 74 1019.2
20190217224010 23 291 5.0 8.0 0.00 0.00 0.00 74 1019.1
20190217223509 23 327 2.0 10.0 0.00 0.00 0.00 74 1019.0
20190217223010 23 304 5.0 10.0 0.00 0.00 0.00 74 1019.0
20190217222510 23 263 4.0 9.0 0.00 0.00 0.00 74 1018.7
20190217222010 24 284 5.0 9.0 0.00 0.00 0.00 74 1018.6
20190217221510 24 254 3.0 6.0 0.00 0.00 0.00 74 1018.6
20190217221010 24 289 3.0 6.0 0.00 0.00 0.00 73 1018.5
20190217220510 25 281 3.0 7.0 0.00 0.00 0.00 72 1018.1
20190217220010 25 297 3.0 10.0 0.00 0.00 0.00 72 1018.0
20190217215510 24 355 5.0 17.0 0.00 0.00 0.00 71 1018.0
20190217215010 25 26 7.0 17.0 0.00 0.00 0.00 71 1017.6
20190217214510 25 320 6.0 16.0 0.00 0.00 0.00 71 1017.6
20190217214010 25 9 8.0 16.0 0.00 0.00 0.00 71 1017.5
20190217213510 25 355 7.0 12.0 0.00 0.00 0.00 71 1017.5
20190217213010 25 9 6.0 12.0 0.00 0.00 0.00 71 1017.5
20190217212510 25 329 6.0 14.0 0.00 0.00 0.00 71 1017.4
20190217212010 25 353 8.0 15.0 0.00 0.00 0.00 71 1017.4
20190217211510 25 349 9.0 17.0 0.00 0.00 0.00 71 1017.3
20190217211010 25 355 10.0 17.0 0.00 0.00 0.00 71 1017.2
20190217210510 25 3 8.0 17.0 0.00 0.00 0.00 71 1017.1
20190217210010 25 339 4.0 16.0 0.00 0.00 0.00 72 1017.0
20190217205510 25 346 7.0 15.0 0.00 0.00 0.00 71 1016.9
20190217205011 25 348 9.0 15.0 0.00 0.00 0.00 71 1016.9
20190217204510 25 344 7.0 15.0 0.00 0.00 0.00 71 1016.9
20190217204010 25 324 6.0 13.0 0.00 0.00 0.00 71 1016.8
20190217203510 25 7 9.0 13.0 0.00 0.00 0.00 70 1016.7
20190217203010 25 0 7.0 14.0 0.00 0.00 0.00 70 1016.7
20190217202510 26 331 6.0 14.0 0.00 0.00 0.00 70 1016.6
20190217202010 26 342 8.0 14.0 0.00 0.00 0.00 70 1016.5
20190217201510 26 343 5.0 14.0 0.00 0.00 0.00 70 1016.4
20190217201010 25 357 6.0 15.0 0.00 0.00 0.00 70 1016.4
20190217200510 25 357 7.0 15.0 0.00 0.00 0.00 70 1016.3
20190217200009 26 345 9.0 14.0 0.00 0.00 0.00 70 1016.3
20190217195509 26 319 5.0 15.0 0.00 0.00 0.00 71 1016.4
20190217195009 26 347 7.0 15.0 0.00 0.00 0.00 71 1016.4
20190217194509 26 12 3.0 12.0 0.00 0.00 0.00 73 1016.4
20190217194009 25 9 8.0 14.0 0.00 0.00 0.00 73 1016.3
20190217193509 25 345 6.0 16.0 0.00 0.00 0.00 72 1016.2
20190217193009 25 348 7.0 16.0 0.00 0.00 0.00 72 1016.1
20190217192509 25 329 6.0 14.0 0.00 0.00 0.00 72 1016.3
20190217192009 25 22 6.0 12.0 0.00 0.00 0.00 72 1016.3
20190217191510 25 333 6.0 12.0 0.00 0.00 0.00 71 1016.3
20190217191010 25 0 7.0 12.0 0.00 0.00 0.00 71 1016.3
20190217190509 26 322 7.0 12.0 0.00 0.00 0.00 72 1016.2
20190217190009 25 348 6.0 12.0 0.00 0.00 0.00 72 1016.2
20190217185509 25 330 7.0 12.0 0.00 0.00 0.00 71 1016.1
20190217185010 26 34 5.0 12.0 0.00 0.00 0.00 72 1016.0
20190217184510 26 11 5.0 10.0 0.00 0.00 0.00 73 1016.0
20190217184010 26 327 3.0 12.0 0.00 0.00 0.00 74 1016.0
20190217183509 25 5 6.0 13.0 0.00 0.00 0.00 73 1016.1
20190217183009 25 350 8.0 13.0 0.00 0.00 0.00 72 1016.2
20190217182509 25 342 9.0 13.0 0.00 0.00 0.00 72 1016.2
20190217182009 25 333 6.0 12.0 0.00 0.00 0.00 72 1016.1
20190217181510 25 355 5.0 12.0 0.00 0.00 0.00 72 1016.0
20190217181010 25 329 7.0 12.0 0.00 0.00 0.00 73 1016.1
20190217180509 25 346 5.0 10.0 0.00 0.00 0.00 73 1016.0
20190217180010 25 329 3.0 10.0 0.00 0.00 0.00 74 1016.1
20190217175509 24 314 5.0 10.0 0.00 0.00 0.00 74 1016.1
20190217175008 24 46 4.0 12.0 0.00 0.00 0.00 75 1016.0
20190217174509 24 346 6.0 13.0 0.00 0.00 0.00 75 1016.0
20190217174009 24 355 7.0 13.0 0.00 0.00 0.00 74 1016.0
20190217173509 24 346 6.0 12.0 0.00 0.00 0.00 74 1016.0
20190217173017 24 350 6.0 12.0 0.00 0.00 0.00 74 1015.9
20190217172508 24 348 5.0 12.0 0.00 0.00 0.00 75 1015.9
20190217172009 24 24 3.0 12.0 0.00 0.00 0.00 75 1015.9
20190217171509 24 327 5.0 10.0 0.00 0.00 0.00 75 1015.8
20190217171009 24 355 6.0 12.0 0.00 0.00 0.00 75 1015.7
20190217170509 24 344 6.0 12.0 0.00 0.00 0.00 75 1015.6
20190217170009 24 345 6.0 12.0 0.00 0.00 0.00 75 1015.5
20190217165509 24 331 4.0 9.0 0.00 0.00 0.00 76 1015.4
20190217165009 24 338 3.0 7.0 0.00 0.00 0.00 76 1015.4
20190217164509 23 334 3.0 12.0 0.00 0.00 0.00 77 1015.4
20190217164009 23 346 5.0 12.0 0.00 0.00 0.00 77 1015.4
20190217163509 23 5 7.0 10.0 0.00 0.00 0.00 77 1015.4
20190217163009 23 336 3.0 12.0 0.00 0.00 0.00 78 1015.4
20190217162509 23 300 5.0 12.0 0.00 0.00 0.00 79 1015.3
20190217162009 23 317 5.0 12.0 0.00 0.00 0.00 79 1015.2
20190217161509 22 311 4.0 9.0 0.00 0.00 0.00 79 1015.3
20190217161009 23 0 5.0 9.0 0.00 0.00 0.00 80 1015.1
20190217160509 22 327 3.0 9.0 0.00 0.00 0.00 80 1015.1
20190217160009 22 337 3.0 7.0 0.00 0.00 0.00 80 1015.0
20190217155509 22 313 2.0 10.0 0.00 0.00 0.00 81 1014.9
20190217155009 22 296 5.0 10.0 0.00 0.00 0.00 81 1014.8
20190217154509 22 329 5.0 10.0 0.00 0.00 0.00 82 1014.8
20190217154009 22 339 3.0 7.0 0.00 0.00 0.00 82 1014.7
20190217153509 22 337 4.0 7.0 0.00 0.00 0.00 82 1014.5
20190217153009 22 355 1.0 7.0 0.00 0.00 0.00 83 1014.5
20190217152509 21 347 3.0 7.0 0.00 0.00 0.00 83 1014.5
20190217152009 21 355 3.0 7.0 0.00 0.00 0.00 83 1014.5
20190217151509 21 217 2.0 7.0 0.00 0.00 0.00 83 1014.4
20190217151009 21 292 2.0 9.0 0.00 0.00 0.00 83 1014.4
20190217150509 21 13 5.0 9.0 0.00 0.00 0.00 84 1014.3
20190217150009 21 0 5.0 9.0 0.00 0.00 0.00 84 1014.1
20190217145509 21 324 2.0 7.0 0.00 0.00 0.00 84 1014.0
20190217145009 21 280 1.0 6.0 0.00 0.00 0.00 84 1013.9
20190217144510 20 317 1.0 6.0 0.00 0.00 0.00 85 1013.9
20190217144010 20 321 1.0 7.0 0.00 0.00 0.00 85 1014.0
20190217143509 20 355 2.0 7.0 0.00 0.00 0.00 85 1014.0
20190217143010 20 330 2.0 5.0 0.00 0.00 0.00 85 1013.9
20190217142509 20 317 1.0 6.0 0.00 0.00 0.00 85 1013.9
20190217142009 20 335 2.0 6.0 0.00 0.00 0.00 85 1013.9
20190217141509 20 350 3.0 7.0 0.00 0.00 0.00 85 1013.9
20190217141009 20 340 3.0 7.0 0.00 0.00 0.00 85 1013.8
20190217140509 20 332 2.0 6.0 0.00 0.00 0.00 85 1013.8
20190217140009 20 339 2.0 5.0 0.00 0.00 0.00 86 1013.8
20190217135509 20 336 1.0 5.0 0.00 0.00 0.00 86 1013.8
20190217135009 19 352 2.0 5.0 0.00 0.00 0.00 86 1013.8
20190217134509 19 317 2.0 5.0 0.00 0.00 0.00 86 1013.7
20190217134006 19 319 2.0 5.0 0.00 0.00 0.00 86 1013.5
20190217133506 19 343 3.0 3.0 0.00 0.00 0.00 86 1013.4
20190217133007 19 4 2.0 3.0 0.00 0.00 0.00 86 1013.4
20190217132507 19 348 1.0 3.0 0.00 0.00 0.00 86 1013.3
20190217132007 19 358 1.0 3.0 0.00 0.00 0.00 86 1013.1
20190217131508 19 343 1.0 3.0 0.00 0.00 0.00 86 1013.0
20190217131008 19 342 1.0 3.0 0.00 0.00 0.00 86 1013.0
20190217130508 19 310 1.0 3.0 0.00 0.00 0.00 86 1012.9
20190217130008 19 332 1.0 3.0 0.00 0.00 0.00 86 1012.8
20190217125508 19 300 1.0 3.0 0.00 0.00 0.00 86 1012.8
20190217125007 19 296 1.0 3.0 0.00 0.00 0.00 86 1012.8
20190217124508 19 336 0.0 2.0 0.00 0.00 0.00 86 1012.8
20190217124008 19 339 0.0 3.0 0.00 0.00 0.00 86 1012.8
20190217123508 19 316 1.0 3.0 0.00 0.00 0.00 86 1012.8
20190217123008 19 313 0.0 3.0 0.00 0.00 0.00 86 1012.8
20190217122508 19 321 1.0 3.0 0.00 0.00 0.00 86 1012.8
20190217122008 19 327 0.0 3.0 0.00 0.00 0.00 86 1012.8
20190217121508 19 325 0.0 5.0 0.00 0.00 0.00 86 1012.6
20190217121008 19 355 1.0 5.0 0.00 0.00 0.00 86 1012.6
20190217120508 19 352 3.0 5.0 0.00 0.00 0.00 86 1012.6
20190217120008 19 342 1.0 3.0 0.00 0.00 0.00 86 1012.7
20190217115508 19 331 1.0 3.0 0.00 0.00 0.00 86 1012.6
20190217115008 19 0 2.0 5.0 0.00 0.00 0.00 86 1012.4
20190217114508 19 344 2.0 6.0 0.00 0.00 0.00 86 1012.3
20190217114008 19 346 2.0 6.0 0.00 0.00 0.00 86 1012.3
20190217113508 19 350 4.0 6.0 0.00 0.00 0.00 86 1012.3
20190217113008 19 340 2.0 6.0 0.00 0.00 0.00 86 1012.3
20190217112508 19 336 1.0 3.0 0.00 0.00 0.00 86 1012.3
20190217112008 19 323 1.0 3.0 0.00 0.00 0.00 86 1012.2
20190217111508 19 347 2.0 3.0 0.00 0.00 0.00 86 1012.2
20190217111008 19 331 1.0 3.0 0.00 0.00 0.00 86 1012.0
20190217110508 19 348 2.0 6.0 0.00 0.00 0.00 87 1011.9
20190217110007 19 343 3.0 6.0 0.00 0.00 0.00 87 1011.8
20190217105508 19 329 3.0 6.0 0.00 0.00 0.00 87 1011.8
20190217105008 19 338 2.0 6.0 0.00 0.00 0.00 87 1011.8
20190217104508 19 344 2.0 6.0 0.00 0.00 0.00 87 1011.8
20190217104008 19 327 3.0 6.0 0.00 0.00 0.00 87 1011.7
20190217103508 19 351 3.0 5.0 0.00 0.00 0.00 87 1011.7
20190217103008 19 317 1.0 3.0 0.00 0.00 0.00 87 1011.7
20190217102508 19 298 1.0 5.0 0.00 0.00 0.00 87 1011.6
20190217102009 19 331 1.0 5.0 0.00 0.00 0.00 87 1011.6
20190217101509 19 353 2.0 3.0 0.00 0.00 0.00 87 1011.6
20190217101009 19 337 2.0 5.0 0.00 0.00 0.00 87 1011.6
20190217100509 19 313 1.0 5.0 0.00 0.00 0.00 87 1011.6
20190217100009 19 350 2.0 3.0 0.00 0.00 0.00 87 1011.7
20190217095509 19 356 2.0 5.0 0.00 0.00 0.00 87 1011.7
20190217095009 19 339 2.0 5.0 0.00 0.00 0.00 87 1011.7
20190217094509 19 352 2.0 5.0 0.00 0.00 0.00 87 1011.7
20190217094009 19 339 1.0 5.0 0.00 0.00 0.00 87 1011.7
20190217093509 19 1 3.0 5.0 0.00 0.00 0.00 87 1011.8
20190217093009 19 355 2.0 3.0 0.00 0.00 0.00 87 1011.8
20190217092509 19 348 2.0 3.0 0.00 0.00 0.00 86 1011.8
20190217092009 19 355 2.0 3.0 0.00 0.00 0.00 86 1012.0
20190217091509 19 345 1.0 3.0 0.00 0.00 0.00 86 1012.1
20190217091010 19 341 2.0 3.0 0.00 0.00 0.00 86 1012.2
20190217090509 19 348 1.0 3.0 0.00 0.00 0.00 86 1012.2
20190217090009 19 347 1.0 3.0 0.00 0.00 0.00 86 1012.2
20190217085509 19 355 1.0 3.0 0.00 0.00 0.00 86 1012.2
20190217085009 19 348 0.0 3.0 0.00 0.00 0.00 86 1012.2
20190217084510 19 347 1.0 3.0 0.00 0.00 0.00 86 1012.2
20190217084008 19 5 0.0 3.0 0.00 0.00 0.00 86 1012.3
20190217083507 19 5 0.0 3.0 0.00 0.00 0.00 86 1012.3
20190217083008 19 302 0.0 3.0 0.00 0.00 0.00 86 1012.4
20190217082508 19 9 0.0 2.0 0.00 0.00 0.00 86 1012.3
20190217082008 19 11 0.0 3.0 0.00 0.00 0.00 86 1012.3
20190217081508 19 12 1.0 3.0 0.00 0.00 0.00 86 1012.3
20190217081008 19 342 1.0 3.0 0.00 0.00 0.00 85 1012.3